Regional Weather Roundup
Issued by NWS

Home | Current Version | Previous Version | Graphics & Text | Print | Product List | Glossary On
Versions: 1 2 3 4 5 6 7 8 9 10 11 12 13 14 15 16 17 18 19 20 21 22 23 24 25 26 27 28 29 30 31 32 33 34 35 36 37 38 39 40 41 42 43 44 45 46 47 48 49 50
789
ASUS45 KBOU 232110
RWRCO

WEATHER ROUNDUP FOR COLORADO
NATIONAL WEATHER SERVICE DENVER/BOULDER CO
200 PM MST THU NOV 23 2017

NOTE: "FAIR" INDICATES FEW OR NO CLOUDS BELOW 12000 FEET WITH NO
SIGNIFICANT WEATHER AND/OR OBSTRUCTIONS TO VISIBILITY.

COZ001>005-013-030-031-232200-
...NORTHWEST COLORADO...

CITY           SKY/WX    TMP DP  RH WIND       PRES   REMARKS
CRAIG          FAIR      58  37  45 CALM      30.21F
HAYDEN         FAIR      57  37  47 S3        30.24F
MEEKER         FAIR      62  36  37 CALM      30.23F
RABBIT EARS PA FAIR      36  34  93 W9G16     30.37F
STEAMBOAT SPGS FAIR      53  36  52 CALM      30.24F
WALDEN         FAIR      50  32  50 SW16G23   30.25F
$$

COZ006>008-011-232200-
...WEST CENTRAL VALLEYS...

CITY           SKY/WX    TMP DP  RH WIND       PRES   REMARKS
GRAND JUNCTION FAIR      60  36  40 CALM      30.25F
MONTROSE       FAIR      60  34  37 CALM      30.28F
EAGLE          FAIR      49  35  58 W3        30.29F
RIFLE          FAIR      56  37  49 CALM      30.26F
DELTA          FAIR      62  33  34 CALM      30.26F
NUCLA          FAIR      61  32  33 CALM      30.32F
$$

COZ017>023-064>068-232200-
...SOUTHWEST COLORADO...

CITY           SKY/WX    TMP DP  RH WIND       PRES   REMARKS
DURANGO        FAIR      59  27  29 W5        30.28F
CORTEZ         FAIR      60  31  33 SW9       30.27F
PAGOSA SPRINGS FAIR      58  26  29 S5        30.32F
TELLURIDE      FAIR      56  24  28 W15       30.40F
WOLF CREEK PAS FAIR      41  23  48 SW6       30.55F
$$

COZ009-010-012-014-032>034-037-058>063-232200-
...CENTRAL COLORADO...

CITY           SKY/WX    TMP DP  RH WIND       PRES   REMARKS
ASPEN          FAIR      54  30  40 N7        30.30F
BUENA VISTA    FAIR      58  22  24 CALM      30.26F
COPPER MTN     NOT AVBL
BERTHOUD PASS  FAIR      28  18  64 NW47G54   30.34F HAZE    WCI  10
COTTONWOOD PAS FAIR      57  14  18 W9        30.36F
GUNNISON       FAIR      50  32  50 W5        30.34F
KREMMLING      FAIR      59  34  38 W10G16    30.28F
LEADVILLE      FAIR      46  18  32 NW13      30.37F
MONARCH PASS   FAIR      37  21  52 SW25      30.57F
SALIDA         FAIR      63  24  22 CALM      30.31F
SUNLIGHT       FAIR      41  28  60 SW10G17   30.47F
WILKERSON PASS FAIR      46  14  27 W8G17     30.43F
$$

COZ069>075-232200-
...SAN LUIS VALLEY/SANGRE DE CRISTO MOUNTAINS...

CITY           SKY/WX    TMP DP  RH WIND       PRES   REMARKS
ALAMOSA        FAIR      56  29  35 CALM      30.29F
DEL NORTE      FAIR      53  28  39 E3        30.31F
LA VETA PASS   FAIR      48  19  32 S23G38      N/A
SAGUACHE       FAIR      54  30  40 SE7       30.31F
$$

COZ035-036-038>040-232200-
...NORTHERN COLORADO FRONT RANGE...

CITY           SKY/WX    TMP DP  RH WIND       PRES   REMARKS
DENVER INTL AP PTSUNNY   71  24  17 W15       30.04F
DMNS CITY PARK   N/A     67  20  16 N8        30.04F
AURORA         PTSUNNY   66  24  20 W12       30.07F
FRONT RANGE AP PTSUNNY   73  23  15 SW15G21   30.06F
ERIE MUNI ARPT FAIR      67  22  18 W15       30.08F
BOULDER MUN AP FAIR      66  23  19 W14G21    30.03F
CENTENNIAL     PTSUNNY   66  23  19 W5        30.08F
BROOMFIELD     PTSUNNY   66  19  16 W17G29    30.06F
FORT COLLINS   FAIR      68  34  28 SE5       30.02F
LONGMONT       NOT AVBL
$$

COZ041-046-047-076>085-087-088-232200-
...PIKES PEAK/PALMER DIVIDE AND SOUTHERN FOOTHILLS...

CITY           SKY/WX    TMP DP  RH WIND       PRES   REMARKS
COLO. SPRINGS  PTSUNNY   65  29  25 S5        30.12F
A. F. ACADEMY  FAIR      66  29  25 S10       30.12F
SCHRIEVER AFB  FAIR      64  27  24 CALM      30.12F
CHEYENNE MTN   FAIR      60  31  33 CALM      30.10F
ELLICOTT         N/A    N/A N/A N/A SW3       30.11F
FALCON         FAIR      67  18  15 SW5       30.16F
FORT CARSON    FAIR      67  28  23 CALM      30.09F
LIMON          FAIR      70  27  20 W7        30.06F
MONUMENT HILL  FAIR      63  21  20 CALM      30.16F
CANON CITY     FAIR      72  27  18 W6        30.08F
WALSENBURG     FAIR      75  23  14 W13G18    30.11F
TRINIDAD       FAIR      68  33  27 S7        30.12F
$$

COZ042>045-048>051-090-091-232200-
...NORTHEAST COLORADO...

CITY           SKY/WX    TMP DP  RH WIND       PRES   REMARKS
GREELEY ARPT   FAIR      69  36  29 SE3       30.02F
AKRON          FAIR      71  26  18 NW15      30.01F
BURLINGTON     FAIR      71  37  28 SW15      30.03F
WRAY           NOT AVBL
YUMA           FAIR      70  30  23 W9        29.99F
STERLING       FAIR      73  32  21 NW14G24   29.95F
HOLYOKE        FAIR      73  32  21 W12G21    29.96F
FORT MORGAN    FAIR      72  24  17 W9        30.01F
$$

COZ086-089-092>099-232200-
...SOUTHEAST COLORADO...

CITY           SKY/WX    TMP DP  RH WIND       PRES   REMARKS
PUEBLO         FAIR      74  29  19 S6        30.03F
LA JUNTA       FAIR      71  35  26 S5        30.04F
LAMAR          FAIR      73  34  23 SW6       30.02F
SPRINGFIELD      N/A     70  35  27 SW6       30.06F
$$




USA.gov is the U.S. government's official web portal to all federal, state and local government web resources and services.